| time (UTC) | temp F | wind direction | speed MPH | gust MPH | rain 1hr in | rain 24hr in | rain mn in | humidity % | barometer mb |
| 20260505130225 | 36 | 18 | 10.0 | 16.0 | 0.02 | 0.17 | 0.07 | 93 | 1003.7 |
| 20260505124236 | 36 | 350 | 7.0 | 17.0 | 0.03 | 0.17 | 0.07 | 93 | 1002.8 |
| 20260505123227 | 37 | 278 | 8.0 | 17.0 | 0.03 | 0.16 | 0.06 | 93 | 1002.8 |
| 20260505122230 | 37 | 309 | 9.0 | 18.0 | 0.04 | 0.16 | 0.06 | 93 | 1002.7 |
| 20260505121251 | 38 | 321 | 9.0 | 18.0 | 0.04 | 0.15 | 0.05 | 93 | 1002.5 |
| 20260505120234 | 38 | 318 | 10.0 | 15.0 | 0.04 | 0.15 | 0.05 | 93 | 1002.5 |
| 20260505115237 | 38 | 329 | 7.0 | 15.0 | 0.05 | 0.15 | 0.05 | 92 | 1002.5 |
| 20260505114235 | 38 | 300 | 8.0 | 17.0 | 0.04 | 0.14 | 0.04 | 92 | 1002.4 |
| 20260505113239 | 39 | 338 | 8.0 | 18.0 | 0.03 | 0.13 | 0.03 | 92 | 1002.4 |
| 20260505112224 | 39 | 323 | 10.0 | 19.0 | 0.02 | 0.12 | 0.02 | 92 | 1002.4 |
| 20260505111232 | 40 | 339 | 8.0 | 14.0 | 0.01 | 0.11 | 0.01 | 92 | 1001.9 |
| 20260505110237 | 41 | 320 | 6.0 | 15.0 | 0.01 | 0.11 | 0.01 | 92 | 1001.9 |
| 20260505101234 | 42 | 355 | 9.0 | 18.0 | 0.00 | 0.10 | 0.00 | 91 | 1001.1 |
| 20260505100231 | 43 | 355 | 8.0 | 16.0 | 0.00 | 0.10 | 0.00 | 91 | 1001.1 |
| 20260505095234 | 45 | 355 | 11.0 | 18.0 | 0.00 | 0.10 | 0.00 | 89 | 1001.0 |
| 20260505094242 | 46 | 5 | 3.0 | 8.0 | 0.00 | 0.10 | 0.00 | 92 | 1001.1 |
| 20260505093227 | 46 | 355 | 3.0 | 6.0 | 0.00 | 0.10 | 0.00 | 91 | 1001.1 |
| 20260505092233 | 45 | 347 | 3.0 | 7.0 | 0.00 | 0.10 | 0.00 | 91 | 1001.2 |
| 20260505091234 | 45 | 178 | 3.0 | 4.0 | 0.00 | 0.10 | 0.00 | 91 | 1000.9 |
| 20260505090236 | 45 | 177 | 1.0 | 3.0 | 0.00 | 0.10 | 0.00 | 91 | 1000.9 |
| 20260505085240 | 45 | 177 | 2.0 | 3.0 | 0.00 | 0.10 | 0.00 | 90 | 1000.9 |
| 20260505084228 | 45 | 177 | 2.0 | 4.0 | 0.00 | 0.10 | 0.00 | 91 | 1000.6 |
| 20260505083231 | 46 | 177 | 2.0 | 3.0 | 0.00 | 0.10 | 0.00 | 90 | 1000.6 |
| 20260505082251 | 46 | 177 | 0.0 | 3.0 | 0.00 | 0.10 | 0.00 | 90 | 1001.2 |
| 20260505081237 | 46 | 177 | 1.0 | 4.0 | 0.00 | 0.10 | 0.00 | 90 | 1001.2 |
| 20260505080237 | 46 | 178 | 1.0 | 4.0 | 0.00 | 0.10 | 0.00 | 90 | 1001.2 |
| 20260505075235 | 46 | 180 | 1.0 | 4.0 | 0.00 | 0.10 | 0.00 | 90 | 1001.3 |
| 20260505074243 | 46 | 196 | 2.0 | 3.0 | 0.00 | 0.10 | 0.00 | 90 | 1001.8 |
| 20260505073227 | 46 | 196 | 1.0 | 4.0 | 0.00 | 0.10 | 0.00 | 90 | 1001.8 |
| 20260505072233 | 46 | 202 | 1.0 | 4.0 | 0.00 | 0.10 | 0.00 | 91 | 1001.8 |
| 20260505071242 | 46 | 202 | 3.0 | 5.0 | 0.00 | 0.10 | 0.00 | 91 | 1001.9 |
| 20260505070248 | 46 | 306 | 2.0 | 4.0 | 0.00 | 0.10 | 0.00 | 91 | 1001.9 |
| 20260505065227 | 46 | 306 | 1.0 | 4.0 | 0.00 | 0.10 | 0.00 | 91 | 1002.0 |
| 20260505064234 | 46 | 307 | 0.0 | 1.0 | 0.00 | 0.10 | 0.00 | 91 | 1002.1 |
| 20260505063242 | 46 | 307 | 0.0 | 3.0 | 0.00 | 0.10 | 0.00 | 91 | 1002.1 |
| 20260505062236 | 46 | 308 | 3.0 | 4.0 | 0.00 | 0.10 | 0.00 | 91 | 1002.1 |
| 20260505061232 | 46 | 315 | 2.0 | 4.0 | 0.01 | 0.10 | 0.00 | 91 | 1002.4 |
| 20260505060254 | 45 | 317 | 0.0 | 0.0 | 0.01 | 0.10 | 0.00 | 90 | 1002.4 |
| 20260505055241 | 45 | 317 | 0.0 | 2.0 | 0.02 | 0.10 | 0.10 | 90 | 1002.4 |
| 20260505054256 | 46 | 317 | 0.0 | 1.0 | 0.02 | 0.10 | 0.10 | 90 | 1001.9 |
| 20260505053239 | 46 | 317 | 1.0 | 2.0 | 0.03 | 0.10 | 0.10 | 90 | 1001.9 |
| 20260505052225 | 46 | 317 | 0.0 | 2.0 | 0.03 | 0.10 | 0.10 | 90 | 1002.3 |
| 20260505051244 | 46 | 317 | 0.0 | 0.0 | 0.02 | 0.09 | 0.09 | 90 | 1002.4 |
| 20260505050230 | 46 | 317 | 0.0 | 2.0 | 0.03 | 0.09 | 0.09 | 90 | 1002.4 |
| 20260505041230 | 47 | 298 | 7.0 | 11.0 | 0.06 | 0.07 | 0.07 | 87 | 1002.6 |
| 20260505040241 | 47 | 312 | 4.0 | 11.0 | 0.05 | 0.06 | 0.06 | 85 | 1002.6 |
| 20260505035242 | 48 | 321 | 7.0 | 15.0 | 0.04 | 0.05 | 0.05 | 84 | 1002.5 |
| 20260505034226 | 48 | 301 | 4.0 | 10.0 | 0.03 | 0.04 | 0.04 | 82 | 1002.4 |
| 20260505033225 | 49 | 214 | 6.0 | 12.0 | 0.02 | 0.03 | 0.03 | 79 | 1002.4 |
| 20260505032230 | 51 | 240 | 8.0 | 13.0 | 0.01 | 0.02 | 0.02 | 71 | 1001.9 |
| 20260505031240 | 51 | 346 | 2.0 | 4.0 | 0.00 | 0.01 | 0.01 | 65 | 1001.6 |
| 20260505030240 | 51 | 5 | 0.0 | 2.0 | 0.00 | 0.01 | 0.01 | 65 | 1001.6 |
| 20260505025228 | 51 | 5 | 1.0 | 5.0 | 0.00 | 0.01 | 0.01 | 63 | 1001.3 |
| 20260505024228 | 51 | 336 | 0.0 | 0.0 | 0.00 | 0.01 | 0.01 | 62 | 1001.2 |
| 20260505023235 | 51 | 336 | 0.0 | 0.0 | 0.00 | 0.01 | 0.01 | 61 | 1001.2 |
| 20260505022236 | 51 | 336 | 0.0 | 0.0 | 0.00 | 0.01 | 0.01 | 60 | 1000.8 |
| 20260505021236 | 52 | 336 | 0.0 | 1.0 | 0.00 | 0.01 | 0.01 | 58 | 1001.0 |
| 20260505020227 | 53 | 336 | 0.0 | 2.0 | 0.00 | 0.01 | 0.01 | 58 | 1001.0 |
| 20260505015244 | 53 | 336 | 1.0 | 3.0 | 0.00 | 0.01 | 0.01 | 58 | 1001.0 |
| 20260505014229 | 53 | 336 | 1.0 | 4.0 | 0.01 | 0.01 | 0.01 | 58 | 1000.6 |
| 20260505013237 | 53 | 336 | 2.0 | 6.0 | 0.01 | 0.01 | 0.01 | 58 | 1000.6 |
| 20260505012238 | 53 | 321 | 1.0 | 7.0 | 0.01 | 0.01 | 0.01 | 58 | 1000.6 |
| 20260505011240 | 54 | 5 | 1.0 | 8.0 | 0.01 | 0.01 | 0.01 | 58 | 1000.6 |
| 20260505010242 | 54 | 305 | 8.0 | 13.0 | 0.01 | 0.01 | 0.01 | 56 | 1000.6 |
| 20260505005244 | 55 | 293 | 11.0 | 21.0 | 0.01 | 0.01 | 0.01 | 52 | 1000.6 |
| 20260505004307 | 57 | 282 | 8.0 | 19.0 | 0.00 | 0.00 | 0.00 | 49 | 1000.3 |
| 20260505003229 | 58 | 303 | 6.0 | 11.0 | 0.00 | 0.00 | 0.00 | 36 | 1000.3 |
| 20260505002229 | 58 | 309 | 6.0 | 13.0 | 0.00 | 0.00 | 0.00 | 36 | 1000.2 |
| 20260505001236 | 59 | 325 | 5.0 | 13.0 | 0.00 | 0.00 | 0.00 | 35 | 999.9 |
| 20260505000241 | 60 | 10 | 6.0 | 16.0 | 0.00 | 0.00 | 0.00 | 33 | 999.9 |
| 20260504235229 | 61 | 5 | 10.0 | 17.0 | 0.00 | 0.00 | 0.00 | 28 | 999.5 |
| 20260504234250 | 61 | 355 | 9.0 | 19.0 | 0.00 | 0.00 | 0.00 | 28 | 999.3 |
| 20260504233233 | 62 | 24 | 9.0 | 19.0 | 0.00 | 0.00 | 0.00 | 27 | 999.3 |
| 20260504232234 | 62 | 16 | 10.0 | 18.0 | 0.00 | 0.00 | 0.00 | 27 | 999.1 |
| 20260504231237 | 62 | 5 | 9.0 | 16.0 | 0.00 | 0.00 | 0.00 | 27 | 998.6 |
| 20260504230227 | 62 | 5 | 12.0 | 19.0 | 0.00 | 0.00 | 0.00 | 26 | 998.6 |
| 20260504225231 | 63 | 22 | 12.0 | 18.0 | 0.00 | 0.00 | 0.00 | 25 | 998.7 |
| 20260504224234 | 63 | 25 | 11.0 | 20.0 | 0.00 | 0.00 | 0.00 | 25 | 998.4 |
| 20260504223256 | 64 | 17 | 11.0 | 21.0 | 0.00 | 0.00 | 0.00 | 24 | 998.4 |
| 20260504222239 | 66 | 21 | 15.0 | 22.0 | 0.00 | 0.00 | 0.00 | 21 | 998.1 |
| 20260504221259 | 67 | 16 | 9.0 | 14.0 | 0.00 | 0.00 | 0.00 | 19 | 998.1 |
| 20260504220238 | 67 | 21 | 9.0 | 14.0 | 0.00 | 0.00 | 0.00 | 19 | 998.1 |
| 20260504215243 | 68 | 5 | 8.0 | 18.0 | 0.00 | 0.00 | 0.00 | 20 | 998.1 |
| 20260504214243 | 67 | 360 | 8.0 | 13.0 | 0.00 | 0.00 | 0.00 | 20 | 998.2 |
| 20260504213226 | 68 | 13 | 7.0 | 11.0 | 0.00 | 0.00 | 0.00 | 19 | 998.2 |
| 20260504212227 | 69 | 292 | 6.0 | 13.0 | 0.00 | 0.00 | 0.00 | 17 | 998.5 |
| 20260504211305 | 70 | 299 | 7.0 | 12.0 | 0.00 | 0.00 | 0.00 | 17 | 998.7 |
| 20260504210230 | 68 | 26 | 6.0 | 11.0 | 0.00 | 0.00 | 0.00 | 20 | 998.7 |
| 20260504205257 | 67 | 29 | 7.0 | 16.0 | 0.00 | 0.00 | 0.00 | 20 | 998.8 |
| 20260504204238 | 67 | 360 | 9.0 | 14.0 | 0.00 | 0.00 | 0.00 | 20 | 998.9 |
| 20260504203242 | 67 | 355 | 7.0 | 17.0 | 0.00 | 0.00 | 0.00 | 20 | 998.9 |
| 20260504202228 | 67 | 360 | 8.0 | 17.0 | 0.00 | 0.00 | 0.00 | 20 | 999.1 |
| 20260504201238 | 67 | 5 | 8.0 | 18.0 | 0.00 | 0.00 | 0.00 | 20 | 999.2 |
| 20260504200235 | 67 | 11 | 9.0 | 18.0 | 0.00 | 0.00 | 0.00 | 20 | 999.2 |
| 20260504195238 | 67 | 360 | 9.0 | 15.0 | 0.00 | 0.00 | 0.00 | 20 | 999.1 |
| 20260504194240 | 69 | 5 | 7.0 | 21.0 | 0.00 | 0.00 | 0.00 | 19 | 999.0 |
| 20260504193250 | 69 | 20 | 6.0 | 16.0 | 0.00 | 0.00 | 0.00 | 19 | 999.0 |
| 20260504192236 | 68 | 304 | 5.0 | 13.0 | 0.00 | 0.00 | 0.00 | 22 | 999.1 |
| 20260504191239 | 66 | 53 | 7.0 | 17.0 | 0.00 | 0.00 | 0.00 | 22 | 999.1 |
| 20260504190246 | 66 | 5 | 8.0 | 10.0 | 0.00 | 0.00 | 0.00 | 21 | 999.1 |
| 20260504185230 | 65 | 355 | 6.0 | 17.0 | 0.00 | 0.00 | 0.00 | 24 | 999.0 |
| 20260504184234 | 64 | 360 | 6.0 | 15.0 | 0.00 | 0.00 | 0.00 | 27 | 999.3 |
| 20260504183245 | 62 | 22 | 4.0 | 12.0 | 0.00 | 0.00 | 0.00 | 27 | 999.3 |
| 20260504182246 | 62 | 302 | 6.0 | 23.0 | 0.00 | 0.00 | 0.00 | 25 | 999.2 |
| 20260504181227 | 64 | 280 | 16.0 | 21.0 | 0.00 | 0.00 | 0.00 | 24 | 999.0 |
| 20260504180229 | 67 | 17 | 8.0 | 12.0 | 0.00 | 0.00 | 0.00 | 22 | 999.0 |
| 20260504175228 | 67 | 17 | 8.0 | 12.0 | 0.00 | 0.00 | 0.00 | 16 | 999.2 |
| 20260504174235 | 68 | 334 | 8.0 | 13.0 | 0.00 | 0.00 | 0.00 | 16 | 999.3 |
| 20260504173238 | 68 | 5 | 2.0 | 7.0 | 0.00 | 0.00 | 0.00 | 16 | 999.3 |
| 20260504172241 | 70 | 5 | 4.0 | 7.0 | 0.00 | 0.00 | 0.00 | 16 | 999.5 |
| 20260504171228 | 71 | 305 | 6.0 | 10.0 | 0.00 | 0.00 | 0.00 | 16 | 999.8 |
| 20260504170254 | 71 | 5 | 4.0 | 9.0 | 0.00 | 0.00 | 0.00 | 16 | 999.8 |
| 20260504160304 | 67 | 276 | 7.0 | 12.0 | 0.00 | 0.00 | 0.00 | 17 | 1000.5 |
| 20260504150247 | 61 | 242 | 9.0 | 17.0 | 0.00 | 0.00 | 0.00 | 22 | 1000.8 |
| 20260504141240 | 58 | 360 | 12.0 | 20.0 | 0.00 | 0.00 | 0.00 | 23 | 1000.6 |
| 20260504140244 | 58 | 360 | 10.0 | 14.0 | 0.00 | 0.00 | 0.00 | 24 | 1000.6 |